Voltar ao catálogo

FENGYUN 1C DEB

AtivoSSO
NORAD 33623·DEBRIS·🇨🇳 China

Lançado May 10, 1999 de Taiyuan Satellite Launch Center

Loading…

Próximas Passagens (próximas 24 horas)

TLE

AtualizadoSource: Space-Track

Época: Sep 13, 2026, 12:58 UTC

1 33623U 99025DDG 26256.54058252  .00007711  00000-0  22010-2 0  9997
2 33623  98.1995   7.3016 0052353 166.7391 193.5191 14.44609382652865

Acompanhe FENGYUN 1C DEB em tempo real com AllMySat

Download on the App Store